Temperature
22 22 22 21 21 20 20 20 20 19 19 19 19 19 19 19 19 19 18 18 18 18 18 18 18 18 18 18 18 19 19 18 19 18 18 18 18 18 17 17 17 18 18
22 22 22 21 21 20 20 20 19 19 19 19 19 19 19 19 19 18 18 18 18 18 18 18 18 18 18 18 18 18 18 18 18 18 18 18 18 18 17 17 17 18 17
22 22 22 21 21 20 20 20 19 19 19 19 19 19 19 19 19 18 18 18 18 18 18 18 18 18 18 18 18 18 18 18 18 18 18 18 18 18 17 17 17 17 17
22 22 22 21 21 20 20 20 19 19 19 19 19 19 19 19 18 18 18 18 18 18 18 18 18 18 18 18 18 18 18 18 18 17 17 17 18 18 17 17 17 17 17
22 22 22 21 21 20 20 19 19 19 19 19 19 19 19 19 18 18 18 18 18 18 18 18 18 18 18 18 18 18 18 18 18 17 17 18 18 18 17 17 17 17 17
21 21 21 21 20 20 20 19 19 19 19 19 19 19 19 19 19 18 18 19 19 19 18 18 18 18 18 18 18 18 18 18 18 18 18 18 18 18 17 17 17 17 17
21 21 21 21 20 20 20 19 19 19 19 19 19 19 19 19 19 19 18 19 19 18 18 18 18 18 18 18 18 18 18 18 18 18 18 18 18 18 17 17 17 17 17
21 21 21 21 20 20 20 20 19 19 19 19 19 19 19 19 19 19 18 18 19 18 18 18 18 18 18 18 18 18 18 18 18 18 18 18 18 18 18 17 17 17 17
21 21 21 21 20 20 20 20 19 19 19 19 19 19 19 19 19 19 18 19 19 18 18 18 18 18 18 18 19 19 18 18 18 18 18 18 18 18 18 17 17 17 17
21 20 21 20 20 20 20 20 19 19 19 19 19 19 19 19 19 19 19 18 19 18 18 19 19 19 18 18 19 19 19 18 18 18 18 18 18 18 18 18 17 17 17
21 20 20 19 20 19 19 19 19 19 19 19 19 19 19 18 18 18 18 18 18 19 18 19 19 19 19 19 19 19 19 19 18 18 18 18 18 18 18 18 17 17 17
21 21 20 20 19 19 19 19 19 19 19 19 19 19 18 18 18 18 18 18 18 18 18 18 18 18 18 18 18 19 19 19 18 18 18 18 18 18 18 18 18 17 17
21 21 20 20 19 19 19 19 19 18 19 18 18 18 18 18 18 18 18 18 18 18 18 18 18 18 18 18 18 18 18 18 18 18 18 18 18 18 18 18 18 18 17
21 21 20 20 19 19 19 19 19 19 19 19 18 18 18 18 18 18 18 18 18 18 18 18 18 18 18 18 18 18 18 18 18 18 18 18 18 18 18 18 18 18 17
21 21 20 20 19 19 19 19 19 19 19 19 18 18 18 18 18 18 18 18 18 17 17 17 17 17 18 18 18 18 18 18 18 18 18 18 18 18 18 18 18 18 17
20 20 20 19 19 19 19 19 19 19 19 19 19 18 18 18 18 18 18 18 17 17 17 17 17 17 17 17 17 17 17 17 17 18 17 17 17 17 18 18 18 18 17
20 20 19 19 19 19 19 19 19 19 19 18 18 18 18 18 18 18 17 17 17 17 17 17 17 17 17 17 17 17 17 17 17 17 17 17 17 17 17 17 17 17 17
20 19 19 19 19 19 19 19 19 19 18 18 18 18 18 18 18 17 17 17 17 17 17 17 17 17 17 17 17 17 17 17 17 17 17 17 17 17 17 17 17 17 17
19 19 19 19 19 19 19 19 18 18 18 18 18 18 17 17 17 17 17 17 17 17 17 17 16 17 17 17 17 17 17 17 17 17 17 17 17 17 17 17 17 17 17
19 19 19 19 18 18 18 18 18 18 18 18 18 18 17 17 17 17 17 17 17 16 16 16 16 16 16 17 17 17 17 18 17 17 17 17 17 17 17 17 17 16 16
18 18 18 18 18 18 18 18 18 18 18 18 17 17 17 17 17 17 17 17 16 16 16 16 16 16 16 17 17 17 18 18 18 17 17 17 17 17 17 17 16 16 16
18 18 18 18 18 18 18 18 18 18 18 17 17 17 17 17 17 17 17 16 16 16 16 16 16 16 16 16 16 17 17 18 18 18 17 17 17 17 17 17 16 16 16
18 18 18 18 18 18 18 18 18 18 17 17 17 17 17 16 16 16 16 16 16 16 16 16 15 16 16 16 16 16 16 17 17 17 17 17 17 17 16 16 16 16 16
18 18 18 18 18 18 18 18 18 18 18 17 17 17 17 16 16 16 16 16 16 16 16 15 15 15 15 16 16 16 16 16 16 16 17 17 16 16 16 16 16 16 16
18 18 18 18 18 18 18 18 18 18 18 18 17 17 16 16 16 16 16 16 15 15 15 15 15 15 15 15 15 15 16 16 16 16 16 16 16 16 16 16 16 16 16
19 18 18 18 18 18 18 18 18 18 18 17 17 17 17 16 16 16 16 15 15 15 15 15 15 15 15 15 15 15 15 15 15 16 16 16 16 16 16 16 16 16 15
Wind_Speed
20 20 21 19 18 16 16 15 15 15 15 15 15 15 15 15 15 15 15 15 14 14 14 14 14 13 13 13 14 14 14 15 16 16 17 17 16 14 13 14 18 17 18
23 22 22 20 18 17 16 16 16 15 15 14 14 14 14 14 14 14 14 14 14 14 14 14 14 14 13 13 12 12 12 12 13 15 16 16 15 14 13 15 18 16 17
23 22 21 20 19 17 17 16 16 15 15 14 14 13 13 13 13 13 14 14 14 14 14 14 14 14 13 12 11 10 9 9 9 11 13 14 15 15 17 19 19 17 16
23 21 20 21 19 18 17 16 16 15 15 14 13 13 13 13 13 13 14 13 13 13 13 13 14 13 12 11 10 8 7 5 4 5 6 13 15 15 16 17 17 16 15
21 21 21 21 20 18 17 17 16 15 14 14 13 12 12 12 12 12 13 13 13 12 13 13 13 12 12 10 8 6 4 2 2 1 11 17 15 14 14 15 15 15 15
21 21 22 21 20 19 17 16 16 15 14 13 13 12 12 12 11 12 12 12 12 12 12 12 12 11 10 9 7 5 4 5 7 4 14 17 15 14 13 13 14 14 14
21 21 21 21 20 19 17 16 15 14 14 13 12 12 11 11 11 11 11 11 11 11 11 11 11 10 9 7 5 4 4 7 6 9 16 16 15 14 13 13 13 13 13
21 20 21 20 19 18 17 16 15 14 13 13 12 11 11 11 10 10 10 10 10 10 10 9 9 8 7 6 3 3 5 8 5 10 16 16 16 14 13 12 12 12 12
21 20 18 19 18 17 17 16 15 14 13 12 12 11 11 10 10 10 9 9 9 9 8 8 7 6 5 4 1 3 6 9 7 6 14 15 16 14 12 11 11 11 11
19 19 16 18 17 16 15 15 14 13 13 12 11 10 10 10 10 10 10 10 9 8 7 6 5 5 4 3 2 4 6 9 3 7 12 14 16 14 12 11 10 10 10
17 16 17 17 15 16 16 16 15 13 12 12 11 11 10 10 11 10 10 11 9 8 7 6 4 4 4 5 6 6 7 7 2 7 13 15 15 14 12 11 10 10 9
14 15 14 16 13 13 14 15 13 12 12 11 10 11 10 7 9 11 13 11 9 8 7 6 5 5 6 6 8 8 7 5 3 8 12 17 15 13 12 11 11 10 10
12 11 14 13 10 10 9 11 8 9 10 10 10 9 6 5 8 11 10 9 8 8 6 6 5 4 3 1 2 4 3 3 4 9 13 16 14 13 12 11 11 11 10
10 9 11 13 9 7 8 7 6 6 6 6 8 5 5 3 3 6 5 7 6 5 4 3 2 0 2 3 4 4 4 2 3 7 12 14 13 13 12 12 11 11 11
8 8 9 10 9 7 6 4 5 4 5 7 8 5 5 4 3 4 4 3 3 5 4 2 1 1 1 2 4 3 4 4 2 3 9 12 12 12 13 12 13 12 12
9 8 9 10 10 8 6 3 2 4 5 6 6 6 4 6 5 4 3 2 2 4 4 2 2 1 1 1 2 3 3 4 1 1 5 9 12 12 13 13 14 14 13
10 8 8 10 10 9 7 5 4 4 6 5 6 6 5 6 5 4 3 3 2 4 4 2 1 2 2 2 1 2 3 2 2 1 3 6 9 12 13 13 14 15 15
11 10 9 10 11 9 7 4 3 4 5 5 7 6 6 6 5 4 3 3 2 3 3 2 1 1 1 1 1 3 2 3 4 5 6 7 7 7 12 15 14 15 15
10 10 8 9 10 9 8 5 3 4 4 5 7 7 6 6 5 4 4 3 1 2 2 2 3 2 2 2 3 4 3 3 3 4 4 4 5 6 9 14 16 16 16
10 10 9 9 9 9 7 5 4 5 4 3 5 6 7 6 5 5 5 3 2 3 3 3 1 0 2 2 5 3 3 3 2 1 2 3 4 5 5 7 11 13 16
11 11 10 10 9 8 6 6 5 5 4 4 5 8 7 6 6 3 4 3 2 3 3 2 2 2 1 1 3 4 4 5 4 3 1 0 1 1 1 5 7 6 9
12 12 11 11 10 9 7 5 5 5 4 5 5 6 7 6 5 5 4 2 3 3 3 2 2 2 3 2 2 4 2 1 1 3 3 3 1 1 2 4 5 6 6
13 13 12 11 11 9 9 6 5 4 3 5 7 5 5 6 5 4 4 2 2 2 3 1 1 2 3 3 2 2 3 3 2 1 1 2 2 0 2 2 3 4 5
13 12 12 11 10 9 8 7 8 7 6 7 6 6 5 5 5 5 4 3 1 1 3 1 3 2 2 3 1 1 1 2 2 2 2 1 2 2 2 2 2 2 3
14 13 12 12 10 9 8 8 8 6 6 6 6 7 6 5 4 5 5 4 2 1 3 2 2 2 2 3 3 2 2 0 2 2 2 2 2 1 2 1 0 1 0
13 13 13 12 11 10 9 8 7 6 6 8 8 8 6 5 5 5 6 4 2 1 2 2 1 1 0 2 3 3 2 2 2 2 3 3 3 2 1 1 1 0 0
Wind_Direction
127 131 132 133 132 131 128 124 119 116 112 108 105 101 98 94 92 90 89 88 88 88 88 87 87 83 80 79 79 82 85 89 93 94 94 91 87 87 92 107 103 97 100
127 131 132 133 132 131 129 126 123 120 117 113 110 107 104 100 96 93 92 91 89 88 88 88 87 86 86 85 86 89 92 98 105 108 107 96 86 83 87 93 98 104 103
125 131 133 132 132 131 130 128 126 124 121 118 114 111 106 103 99 97 95 93 92 91 90 88 87 86 87 87 88 91 96 104 115 127 124 106 93 86 91 95 101 105 104
128 135 135 133 132 131 130 130 129 128 125 121 118 114 110 106 103 100 99 97 94 93 92 90 88 88 88 88 88 89 92 103 126 153 139 110 101 95 96 100 104 106 106
128 129 132 135 133 132 131 131 131 130 128 125 122 119 114 110 106 104 103 101 99 96 94 93 91 90 90 89 86 79 68 34 311 227 102 97 100 103 102 104 106 108 109
127 130 134 135 134 133 133 132 131 131 130 128 126 122 118 114 111 108 105 103 103 101 99 97 95 93 93 91 85 67 30 346 313 127 115 110 110 110 109 110 110 111 112
130 130 137 137 135 135 135 135 134 133 132 130 127 124 122 118 115 113 111 107 106 104 102 100 99 96 96 91 79 49 2 330 311 101 108 110 117 118 116 115 115 115 115
132 132 136 138 137 138 138 138 137 136 134 133 131 130 128 128 125 122 119 113 110 109 107 104 102 101 99 95 71 8 341 330 359 101 108 116 124 122 122 122 121 121 121
132 132 140 142 141 142 142 141 141 141 140 139 138 139 138 137 136 133 129 122 117 116 115 113 111 111 109 108 81 329 321 322 320 108 118 124 129 128 128 129 130 129 129
135 139 145 146 146 148 147 147 147 148 148 148 149 152 153 153 153 150 144 137 131 128 128 127 126 131 143 168 226 279 300 308 305 84 107 128 136 136 137 138 139 139 138
138 143 150 147 152 156 153 151 153 155 157 157 162 169 172 177 170 165 150 145 144 143 145 147 155 174 194 212 229 252 275 278 92 100 114 138 145 144 146 149 151 152 151
140 148 150 150 156 160 152 150 160 163 164 177 171 179 192 182 157 148 147 150 154 160 165 171 185 210 226 222 219 232 253 259 119 119 132 148 153 153 156 161 164 166 166
146 147 148 146 152 151 135 154 156 155 165 182 169 176 161 150 143 140 150 155 169 180 185 176 197 222 247 299 249 231 274 324 91 121 140 151 157 162 166 172 176 178 178
147 146 142 142 144 132 136 142 144 148 162 151 146 153 133 121 108 120 133 143 156 151 145 150 165 210 325 343 317 302 313 339 68 114 146 155 162 171 178 182 186 189 190
148 141 130 136 130 124 111 128 143 135 135 129 137 133 129 128 115 106 100 108 138 133 139 141 112 89 336 331 298 302 328 334 26 89 142 165 172 179 186 192 196 197 197
154 141 132 132 129 127 125 127 112 120 114 122 126 131 127 115 112 115 123 121 101 108 114 124 141 160 249 268 289 309 300 309 6 91 164 179 186 187 191 198 203 202 203
153 145 137 137 139 143 147 159 144 134 133 121 116 123 119 116 124 125 125 120 108 123 133 138 173 179 212 236 252 279 269 281 276 234 218 203 198 200 200 202 205 206 208
154 148 153 153 146 147 146 156 141 140 127 124 124 122 125 129 134 134 122 112 141 140 138 143 59 25 37 343 266 259 236 213 223 221 227 221 206 202 204 207 208 209 210
152 149 153 143 146 148 146 148 141 117 110 122 130 132 135 143 152 132 109 113 185 114 83 61 69 21 359 329 273 239 232 216 208 227 214 224 218 205 204 207 211 212 215
154 153 150 144 146 146 145 151 142 130 127 126 126 130 143 158 148 126 125 130 107 83 70 64 40 313 292 291 302 294 248 229 202 206 234 234 217 219 206 190 202 218 223
159 157 152 152 151 147 151 160 156 148 150 145 143 144 156 154 135 128 117 134 118 104 86 58 9 319 292 356 309 287 242 205 175 175 191 297 288 248 211 190 200 210 221
158 157 151 152 156 158 161 161 160 147 161 154 137 143 154 144 148 149 121 143 106 119 108 80 40 338 337 23 323 321 310 85 316 176 162 197 182 348 264 217 195 207 221
160 160 160 159 161 161 158 157 149 141 159 146 140 151 160 155 160 121 134 119 123 149 125 116 50 9 356 328 16 355 349 26 325 112 142 106 104 236 294 284 221 208 209
163 162 153 156 158 158 162 162 162 172 171 156 153 153 159 165 164 149 143 130 103 77 111 155 84 353 337 322 353 40 42 53 339 341 314 92 185 205 228 301 321 231 194
164 161 156 156 159 163 172 172 177 177 168 150 145 142 161 166 171 159 145 133 129 100 105 86 74 359 340 350 349 355 11 328 253 276 315 326 294 242 190 178 254 322 183
162 160 159 160 162 167 171 170 181 182 160 145 148 157 180 169 176 162 148 138 161 144 115 116 101 210 345 14 347 336 338 338 335 334 320 310 306 294 219 147 177 214 139
Height
1511 1513 1517 1520 1523 1526 1528 1531 1533 1534 1536 1537 1539 1540 1541 1542 1543 1544 1545 1546 1547 1548 1549 1549 1550 1551 1552 1553 1554 1555 1556 1557 1558 1559 1559 1560 1561 1562 1563 1564 1565 1566 1567
1508 1513 1518 1521 1524 1527 1530 1532 1534 1536 1538 1539 1540 1542 1543 1544 1545 1546 1547 1548 1549 1550 1551 1551 1552 1553 1553 1554 1555 1556 1557 1559 1559 1561 1562 1563 1564 1565 1565 1566 1568 1569 1570
1508 1514 1518 1522 1525 1528 1531 1533 1535 1537 1539 1541 1542 1544 1545 1546 1547 1548 1549 1550 1551 1552 1553 1553 1554 1554 1555 1556 1557 1558 1560 1561 1562 1563 1564 1565 1566 1567 1568 1569 1570 1571 1572
1510 1515 1519 1522 1526 1529 1532 1534 1537 1539 1541 1542 1544 1545 1547 1548 1549 1550 1551 1552 1553 1554 1554 1555 1556 1556 1557 1558 1559 1561 1562 1563 1564 1565 1567 1568 1568 1569 1570 1571 1572 1573 1574
1511 1516 1519 1523 1527 1530 1533 1536 1538 1540 1542 1544 1545 1547 1548 1549 1551 1552 1552 1553 1554 1555 1556 1557 1558 1559 1559 1560 1562 1563 1564 1565 1566 1567 1569 1569 1570 1571 1572 1573 1574 1575 1576
1512 1516 1520 1524 1528 1531 1534 1537 1539 1541 1543 1545 1547 1548 1550 1551 1552 1553 1554 1555 1556 1557 1558 1559 1560 1561 1561 1562 1564 1565 1566 1567 1568 1570 1570 1571 1572 1572 1573 1575 1576 1577 1578
1513 1516 1521 1525 1528 1531 1535 1537 1540 1542 1544 1546 1548 1549 1551 1552 1554 1555 1556 1556 1557 1558 1559 1560 1561 1562 1563 1564 1565 1567 1568 1569 1570 1571 1571 1572 1573 1574 1575 1576 1577 1578 1580
1514 1517 1521 1525 1529 1532 1535 1538 1540 1543 1545 1547 1549 1550 1552 1553 1555 1556 1557 1558 1559 1560 1561 1562 1563 1564 1565 1566 1567 1568 1569 1570 1571 1573 1572 1573 1574 1575 1576 1577 1578 1580 1581
1514 1517 1521 1525 1529 1533 1536 1538 1541 1543 1546 1547 1549 1551 1553 1554 1555 1557 1558 1559 1560 1561 1562 1563 1564 1565 1566 1567 1568 1569 1570 1571 1572 1573 1573 1574 1575 1576 1577 1578 1579 1581 1582
1515 1518 1521 1525 1529 1533 1536 1539 1541 1544 1546 1548 1550 1552 1553 1555 1556 1557 1558 1560 1561 1562 1563 1564 1565 1566 1567 1568 1569 1570 1571 1572 1573 1574 1573 1575 1576 1577 1578 1579 1580 1581 1583
1516 1519 1523 1526 1529 1533 1536 1539 1542 1544 1546 1548 1550 1552 1554 1555 1557 1558 1559 1560 1561 1562 1563 1564 1565 1566 1567 1568 1569 1570 1571 1572 1573 1573 1574 1575 1576 1577 1578 1580 1581 1582 1583
1516 1520 1523 1526 1530 1534 1537 1539 1542 1544 1546 1549 1551 1553 1554 1556 1558 1559 1560 1561 1562 1562 1563 1564 1565 1567 1567 1568 1569 1570 1571 1573 1573 1572 1574 1575 1576 1578 1579 1580 1581 1582 1583
1516 1520 1523 1526 1530 1534 1537 1539 1542 1545 1547 1549 1551 1553 1555 1557 1558 1559 1560 1560 1561 1562 1563 1564 1565 1566 1567 1568 1569 1570 1571 1572 1573 1573 1574 1575 1576 1577 1578 1579 1580 1582 1583
1515 1519 1522 1525 1529 1533 1536 1539 1542 1545 1547 1549 1551 1553 1555 1557 1558 1559 1559 1560 1561 1562 1563 1564 1564 1565 1566 1567 1568 1569 1570 1571 1572 1573 1573 1574 1575 1576 1577 1578 1580 1581 1582
1514 1518 1521 1524 1528 1532 1536 1539 1542 1545 1547 1549 1551 1553 1555 1556 1557 1558 1559 1560 1561 1562 1562 1563 1564 1564 1565 1566 1567 1568 1569 1570 1571 1572 1572 1573 1574 1575 1576 1577 1578 1579 1581
1513 1517 1519 1523 1527 1531 1534 1538 1541 1544 1546 1548 1550 1552 1554 1555 1556 1558 1559 1560 1560 1561 1561 1562 1563 1563 1564 1565 1565 1566 1567 1568 1569 1570 1570 1571 1572 1573 1574 1575 1576 1578 1579
1511 1515 1518 1522 1526 1530 1534 1537 1540 1543 1546 1548 1549 1551 1553 1554 1555 1557 1558 1559 1559 1560 1561 1561 1562 1562 1563 1563 1564 1565 1565 1566 1567 1567 1568 1569 1570 1571 1572 1573 1574 1575 1577
1510 1514 1517 1522 1525 1529 1533 1536 1540 1543 1545 1547 1548 1550 1551 1553 1554 1556 1557 1558 1558 1560 1560 1561 1561 1562 1562 1562 1563 1563 1564 1564 1565 1566 1567 1568 1568 1569 1570 1571 1572 1573 1574
1508 1512 1517 1521 1524 1528 1532 1535 1539 1542 1544 1546 1547 1549 1551 1552 1554 1555 1556 1557 1558 1559 1560 1560 1560 1561 1561 1561 1562 1562 1563 1563 1564 1564 1565 1566 1567 1567 1568 1568 1569 1570 1571
1507 1511 1516 1519 1523 1527 1530 1534 1538 1541 1543 1545 1547 1548 1550 1552 1553 1555 1555 1556 1557 1558 1559 1559 1559 1560 1560 1561 1561 1561 1561 1562 1562 1563 1564 1565 1565 1566 1566 1566 1567 1568 1568
1505 1510 1513 1517 1521 1525 1529 1533 1536 1539 1542 1544 1546 1547 1549 1551 1553 1554 1555 1556 1557 1557 1558 1558 1559 1559 1560 1560 1560 1560 1560 1560 1561 1561 1562 1563 1564 1564 1565 1565 1565 1565 1566
1504 1508 1512 1516 1520 1524 1528 1532 1535 1538 1540 1543 1545 1546 1549 1551 1552 1554 1554 1555 1556 1556 1557 1557 1557 1558 1559 1560 1560 1559 1559 1560 1560 1561 1561 1562 1562 1563 1563 1563 1563 1563 1564
1504 1507 1512 1515 1520 1523 1527 1531 1534 1537 1540 1542 1544 1546 1548 1550 1551 1552 1553 1554 1555 1556 1556 1556 1556 1557 1558 1559 1559 1560 1559 1559 1560 1561 1561 1561 1561 1562 1562 1562 1562 1562 1562
1503 1507 1511 1515 1519 1522 1526 1529 1532 1535 1538 1541 1543 1544 1547 1549 1550 1551 1552 1553 1554 1555 1555 1555 1555 1557 1557 1558 1559 1559 1560 1559 1560 1560 1561 1560 1560 1560 1560 1560 1560 1560 1560
1503 1506 1510 1514 1517 1520 1524 1528 1531 1535 1537 1540 1542 1544 1545 1547 1548 1549 1550 1551 1552 1553 1553 1554 1554 1555 1556 1557 1557 1558 1558 1559 1559 1560 1560 1560 1559 1559 1559 1559 1559 1559 1559
1502 1505 1509 1512 1516 1520 1523 1527 1530 1533 1536 1538 1540 1542 1544 1545 1546 1548 1549 1550 1551 1551 1552 1552 1553 1554 1555 1555 1556 1557 1558 1558 1558 1558 1558 1558 1558 1558 1557 1557 1557 1557 1557